Time,TemperatureF,DewpointF,PressureIn,WindDirection,WindDirectionDegrees,WindSpeedMPH,WindSpeedGustMPH,Humidity,HourlyPrecipIn,Conditions,Clouds,dailyrainin,SoftwareType,DateUTC
2013-09-25 00:02:00,50.2,47.2,29.87,North,0,0.0,0.0,89,-99.99,,,-99.99,PWS SA v1.10,2013-09-25 04:02:00,
2013-09-25 00:04:00,50.2,47.3,29.88,North,0,0.0,0.0,89,-99.99,,,-99.99,PWS SA v1.10,2013-09-25 04:04:00,
2013-09-25 00:06:00,50.1,47.5,29.87,North,0,0.0,0.0,90,-99.99,,,-99.99,PWS SA v1.10,2013-09-25 04:06:00,
2013-09-25 00:08:00,50.0,47.5,29.87,North,0,0.0,0.0,90,-99.99,,,-99.99,PWS SA v1.10,2013-09-25 04:08:00,
2013-09-25 00:12:00,49.8,47.3,29.87,North,0,0.0,0.0,90,-99.99,,,-99.99,PWS SA v1.10,2013-09-25 04:12:00,
2013-09-25 00:18:00,49.9,47.1,29.87,North,0,0.0,0.0,90,-99.99,,,-99.99,PWS SA v1.10,2013-09-25 04:18:00,
2013-09-25 00:24:00,50.0,47.8,29.87,North,0,0.0,0.0,91,-99.99,,,-99.99,PWS SA v1.10,2013-09-25 04:24:00,
2013-09-25 00:30:00,49.8,47.4,29.87,North,0,0.0,0.0,91,-99.99,,,-99.99,PWS SA v1.10,2013-09-25 04:30:00,
2013-09-25 00:36:00,49.9,47.7,29.87,North,0,0.0,0.0,91,-99.99,,,-99.99,PWS SA v1.10,2013-09-25 04:36:00,
2013-09-25 00:42:00,49.9,47.5,29.88,North,0,0.0,0.0,91,-99.99,,,-99.99,PWS SA v1.10,2013-09-25 04:42:00,
2013-09-25 00:48:00,49.7,47.3,29.87,North,0,0.0,0.0,91,-99.99,,,-99.99,PWS SA v1.10,2013-09-25 04:48:00,
2013-09-25 00:54:00,49.7,47.3,29.87,North,0,0.0,0.0,91,-99.99,,,-99.99,PWS SA v1.10,2013-09-25 04:54:00,
2013-09-25 01:00:00,49.7,47.4,29.87,North,0,0.0,0.0,92,-99.99,,,-99.99,PWS SA v1.10,2013-09-25 05:00:00,
2013-09-25 01:06:00,49.5,47.4,29.87,North,0,0.0,0.0,92,-99.99,,,-99.99,PWS SA v1.10,2013-09-25 05:06:00,
2013-09-25 01:12:00,49.4,47.5,29.87,North,0,0.0,0.0,93,-99.99,,,-99.99,PWS SA v1.10,2013-09-25 05:12:00,
2013-09-25 01:18:00,49.3,47.7,29.86,North,0,0.0,0.0,94,-99.99,,,-99.99,PWS SA v1.10,2013-09-25 05:18:00,
2013-09-25 01:24:00,49.0,47.4,29.87,North,0,0.0,0.0,94,-99.99,,,-99.99,PWS SA v1.10,2013-09-25 05:24:00,
2013-09-25 01:30:00,49.0,47.3,29.87,North,0,0.0,0.0,94,-99.99,,,-99.99,PWS SA v1.10,2013-09-25 05:30:00,
2013-09-25 01:36:00,48.9,47.2,29.87,North,0,0.0,0.0,93,-99.99,,,-99.99,PWS SA v1.10,2013-09-25 05:36:00,
2013-09-25 01:42:00,48.6,47.0,29.87,North,0,0.0,0.0,93,-99.99,,,-99.99,PWS SA v1.10,2013-09-25 05:42:00,
2013-09-25 01:48:00,48.7,46.9,29.87,North,0,0.0,0.0,93,-99.99,,,-99.99,PWS SA v1.10,2013-09-25 05:48:00,
2013-09-25 01:54:00,48.7,47.1,29.87,North,0,0.0,0.0,94,-99.99,,,-99.99,PWS SA v1.10,2013-09-25 05:54:00,
2013-09-25 02:00:00,48.9,47.3,29.86,North,0,0.0,0.0,94,-99.99,,,-99.99,PWS SA v1.10,2013-09-25 06:00:00,
2013-09-25 02:06:00,48.8,47.5,29.86,North,0,0.0,0.0,94,-99.99,,,-99.99,PWS SA v1.10,2013-09-25 06:06:00,
2013-09-25 02:12:00,48.8,47.4,29.86,North,0,0.0,0.0,94,-99.99,,,-99.99,PWS SA v1.10,2013-09-25 06:12:00,
2013-09-25 02:18:00,48.7,47.2,29.86,North,0,0.0,0.0,94,-99.99,,,-99.99,PWS SA v1.10,2013-09-25 06:18:00,
2013-09-25 02:24:00,48.9,47.6,29.86,North,0,0.0,0.0,94,-99.99,,,-99.99,PWS SA v1.10,2013-09-25 06:24:00,
2013-09-25 02:30:00,49.1,47.5,29.86,North,0,0.0,0.0,94,-99.99,,,-99.99,PWS SA v1.10,2013-09-25 06:30:00,
2013-09-25 02:36:00,49.0,47.4,29.85,North,0,0.0,0.0,93,-99.99,,,-99.99,PWS SA v1.10,2013-09-25 06:36:00,
2013-09-25 02:42:00,48.9,47.2,29.86,North,0,0.0,0.0,93,-99.99,,,-99.99,PWS SA v1.10,2013-09-25 06:42:00,
2013-09-25 02:48:00,48.8,47.3,29.86,North,0,0.0,0.0,94,-99.99,,,-99.99,PWS SA v1.10,2013-09-25 06:48:00,
2013-09-25 02:54:00,48.7,47.3,29.86,North,0,0.0,0.0,94,-99.99,,,-99.99,PWS SA v1.10,2013-09-25 06:54:00,
2013-09-25 03:00:00,48.8,47.4,29.85,North,0,0.0,0.0,94,-99.99,,,-99.99,PWS SA v1.10,2013-09-25 07:00:00,
2013-09-25 03:06:00,48.3,47.0,29.86,North,0,0.0,0.0,94,-99.99,,,-99.99,PWS SA v1.10,2013-09-25 07:06:00,
2013-09-25 03:12:00,48.0,46.8,29.86,North,0,0.0,0.0,95,-99.99,,,-99.99,PWS SA v1.10,2013-09-25 07:12:00,
2013-09-25 03:18:00,48.0,46.8,29.86,North,0,0.0,0.0,95,-99.99,,,-99.99,PWS SA v1.10,2013-09-25 07:18:00,
2013-09-25 03:24:00,47.7,46.6,29.86,North,0,0.0,0.0,96,-99.99,,,-99.99,PWS SA v1.10,2013-09-25 07:24:00,
2013-09-25 03:30:00,47.6,46.8,29.86,North,0,0.0,0.0,96,-99.99,,,-99.99,PWS SA v1.10,2013-09-25 07:30:00,
2013-09-25 03:36:00,47.3,46.4,29.85,North,0,0.0,0.0,96,-99.99,,,-99.99,PWS SA v1.10,2013-09-25 07:36:00,
2013-09-25 03:42:00,47.4,46.3,29.86,North,0,0.0,0.0,96,-99.99,,,-99.99,PWS SA v1.10,2013-09-25 07:42:00,
2013-09-25 03:48:00,47.3,46.4,29.86,North,0,0.0,0.0,96,-99.99,,,-99.99,PWS SA v1.10,2013-09-25 07:48:00,
2013-09-25 03:54:00,47.1,46.3,29.85,North,0,0.0,0.0,96,-99.99,,,-99.99,PWS SA v1.10,2013-09-25 07:54:00,
2013-09-25 04:00:00,47.2,46.4,29.85,North,0,0.0,0.0,97,-99.99,,,-99.99,PWS SA v1.10,2013-09-25 08:00:00,
2013-09-25 04:06:00,47.1,46.4,29.85,North,0,0.0,0.0,97,-99.99,,,-99.99,PWS SA v1.10,2013-09-25 08:06:00,
2013-09-25 04:12:00,47.0,46.4,29.85,North,0,0.0,0.0,97,-99.99,,,-99.99,PWS SA v1.10,2013-09-25 08:12:00,
2013-09-25 04:18:00,47.0,46.4,29.85,North,0,0.0,0.0,96,-99.99,,,-99.99,PWS SA v1.10,2013-09-25 08:18:00,
2013-09-25 04:24:00,47.0,46.3,29.85,North,0,0.0,0.0,96,-99.99,,,-99.99,PWS SA v1.10,2013-09-25 08:24:00,
2013-09-25 04:30:00,47.1,46.4,29.85,North,0,0.0,0.0,96,-99.99,,,-99.99,PWS SA v1.10,2013-09-25 08:30:00,
2013-09-25 04:36:00,47.1,46.4,29.86,North,0,0.0,0.0,96,-99.99,,,-99.99,PWS SA v1.10,2013-09-25 08:36:00,
2013-09-25 04:42:00,47.1,46.3,29.86,North,0,0.0,0.0,96,-99.99,,,-99.99,PWS SA v1.10,2013-09-25 08:42:00,
2013-09-25 04:48:00,47.1,46.3,29.86,North,0,0.0,0.0,95,-99.99,,,-99.99,PWS SA v1.10,2013-09-25 08:48:00,
2013-09-25 04:54:00,46.9,46.2,29.85,North,0,0.0,0.0,96,-99.99,,,-99.99,PWS SA v1.10,2013-09-25 08:54:00,
2013-09-25 05:00:00,47.2,46.2,29.85,North,0,0.0,0.0,96,-99.99,,,-99.99,PWS SA v1.10,2013-09-25 09:00:00,
2013-09-25 05:06:00,46.9,46.0,29.85,North,0,0.0,0.0,96,-99.99,,,-99.99,PWS SA v1.10,2013-09-25 09:06:00,
2013-09-25 05:12:00,47.1,46.2,29.85,North,0,0.0,0.0,96,-99.99,,,-99.99,PWS SA v1.10,2013-09-25 09:12:00,
2013-09-25 05:18:00,47.1,46.4,29.85,North,0,0.0,0.0,96,-99.99,,,-99.99,PWS SA v1.10,2013-09-25 09:18:00,
2013-09-25 05:24:00,47.1,46.1,29.85,North,0,0.0,0.0,96,-99.99,,,-99.99,PWS SA v1.10,2013-09-25 09:24:00,
2013-09-25 05:30:00,47.1,46.1,29.85,North,0,0.0,0.0,96,-99.99,,,-99.99,PWS SA v1.10,2013-09-25 09:30:00,
2013-09-25 05:36:00,47.0,46.0,29.85,North,0,0.0,0.0,96,-99.99,,,-99.99,PWS SA v1.10,2013-09-25 09:36:00,
2013-09-25 05:42:00,47.2,46.2,29.85,North,0,0.0,0.0,96,-99.99,,,-99.99,PWS SA v1.10,2013-09-25 09:42:00,
2013-09-25 05:48:00,46.9,45.9,29.85,North,0,0.0,0.0,95,-99.99,,,-99.99,PWS SA v1.10,2013-09-25 09:48:00,
2013-09-25 05:54:00,47.0,46.1,29.85,North,0,0.0,0.0,96,-99.99,,,-99.99,PWS SA v1.10,2013-09-25 09:54:00,
2013-09-25 06:00:00,47.0,46.1,29.85,North,0,0.0,0.0,96,-99.99,,,-99.99,PWS SA v1.10,2013-09-25 10:00:00,
2013-09-25 06:06:00,46.9,46.1,29.86,North,0,0.0,0.0,97,-99.99,,,-99.99,PWS SA v1.10,2013-09-25 10:06:00,
2013-09-25 06:12:00,47.0,46.2,29.86,North,0,0.0,0.0,97,-99.99,,,-99.99,PWS SA v1.10,2013-09-25 10:12:00,
2013-09-25 06:18:00,47.0,46.3,29.85,North,0,0.0,0.0,96,-99.99,,,-99.99,PWS SA v1.10,2013-09-25 10:18:00,
2013-09-25 06:24:00,46.9,46.0,29.85,North,0,0.0,0.0,96,-99.99,,,-99.99,PWS SA v1.10,2013-09-25 10:24:00,
2013-09-25 06:30:00,46.7,45.9,29.86,North,0,0.0,0.0,96,-99.99,,,-99.99,PWS SA v1.10,2013-09-25 10:30:00,
2013-09-25 06:36:00,46.8,45.8,29.86,North,0,0.0,0.0,96,-99.99,,,-99.99,PWS SA v1.10,2013-09-25 10:36:00,
2013-09-25 06:42:00,46.8,46.1,29.86,North,0,0.0,0.0,96,-99.99,,,-99.99,PWS SA v1.10,2013-09-25 10:42:00,
2013-09-25 06:48:00,46.7,46.2,29.85,North,0,0.0,0.0,96,-99.99,,,-99.99,PWS SA v1.10,2013-09-25 10:48:00,
2013-09-25 06:54:00,46.9,46.3,29.85,North,0,0.0,0.0,96,-99.99,,,-99.99,PWS SA v1.10,2013-09-25 10:54:00,
2013-09-25 07:00:00,46.9,45.9,29.86,North,0,0.0,0.0,96,-99.99,,,-99.99,PWS SA v1.10,2013-09-25 11:00:00,
2013-09-25 07:06:00,46.8,45.9,29.85,North,0,0.0,0.0,96,-99.99,,,-99.99,PWS SA v1.10,2013-09-25 11:06:00,
2013-09-25 07:12:00,47.3,46.4,29.85,North,0,0.0,0.0,97,-99.99,,,-99.99,PWS SA v1.10,2013-09-25 11:12:00,
2013-09-25 07:18:00,47.3,46.3,29.85,North,0,0.0,0.0,97,-99.99,,,-99.99,PWS SA v1.10,2013-09-25 11:18:00,
2013-09-25 07:24:00,47.5,46.6,29.85,North,0,0.0,0.0,97,-99.99,,,-99.99,PWS SA v1.10,2013-09-25 11:24:00,
2013-09-25 07:30:00,47.4,46.5,29.85,North,0,0.0,0.0,97,-99.99,,,-99.99,PWS SA v1.10,2013-09-25 11:30:00,
2013-09-25 07:36:00,47.8,46.5,29.85,North,0,0.0,0.0,96,-99.99,,,-99.99,PWS SA v1.10,2013-09-25 11:36:00,
2013-09-25 07:42:00,47.8,46.8,29.85,North,0,0.0,0.0,96,-99.99,,,-99.99,PWS SA v1.10,2013-09-25 11:42:00,
2013-09-25 07:48:00,48.4,47.3,29.85,North,0,0.0,0.0,96,-99.99,,,-99.99,PWS SA v1.10,2013-09-25 11:48:00,
2013-09-25 07:54:00,48.5,47.3,29.85,North,0,0.0,0.0,96,-99.99,,,-99.99,PWS SA v1.10,2013-09-25 11:54:00,
2013-09-25 08:00:00,48.7,47.6,29.85,North,0,0.0,0.0,97,-99.99,,,-99.99,PWS SA v1.10,2013-09-25 12:00:00,
2013-09-25 08:06:00,49.2,47.8,29.86,North,0,0.0,0.0,96,-99.99,,,-99.99,PWS SA v1.10,2013-09-25 12:06:00,
2013-09-25 08:12:00,49.6,47.9,29.86,North,0,0.0,0.0,95,-99.99,,,-99.99,PWS SA v1.10,2013-09-25 12:12:00,
2013-09-25 08:18:00,50.5,47.4,29.86,North,0,0.0,1.0,91,-99.99,,,-99.99,PWS SA v1.10,2013-09-25 12:18:00,
2013-09-25 08:24:00,51.1,47.8,29.86,North,0,0.0,1.0,89,-99.99,,,-99.99,PWS SA v1.10,2013-09-25 12:24:00,
2013-09-25 08:30:00,51.5,47.5,29.86,North,0,0.0,0.0,87,-99.99,,,-99.99,PWS SA v1.10,2013-09-25 12:30:00,
2013-09-25 08:36:00,52.2,47.8,29.86,North,0,0.0,0.0,87,-99.99,,,-99.99,PWS SA v1.10,2013-09-25 12:36:00,
2013-09-25 08:42:00,52.7,48.0,29.86,North,0,0.0,1.0,85,-99.99,,,-99.99,PWS SA v1.10,2013-09-25 12:42:00,
2013-09-25 08:48:00,53.4,48.0,29.86,North,0,0.0,1.0,83,-99.99,,,-99.99,PWS SA v1.10,2013-09-25 12:48:00,
2013-09-25 08:54:00,53.9,47.7,29.86,North,0,0.0,3.0,81,-99.99,,,-99.99,PWS SA v1.10,2013-09-25 12:54:00,
2013-09-25 09:00:00,54.3,48.0,29.87,ESE,102,3.4,5.0,80,-99.99,,,-99.99,PWS SA v1.10,2013-09-25 13:00:00,
2013-09-25 09:06:00,54.7,48.4,29.87,North,0,0.0,5.0,80,-99.99,,,-99.99,PWS SA v1.10,2013-09-25 13:06:00,
2013-09-25 09:12:00,55.0,48.8,29.87,North,0,0.0,5.0,80,-99.99,,,-99.99,PWS SA v1.10,2013-09-25 13:12:00,
2013-09-25 09:18:00,55.1,49.0,29.87,North,5,1.7,1.7,80,-99.99,,,-99.99,PWS SA v1.10,2013-09-25 13:18:00,
2013-09-25 09:24:00,55.7,48.9,29.88,NNW,339,1.7,3.0,79,-99.99,,,-99.99,PWS SA v1.10,2013-09-25 13:24:00,
2013-09-25 09:30:00,55.9,49.3,29.87,North,0,0.0,3.0,79,-99.99,,,-99.99,PWS SA v1.10,2013-09-25 13:30:00,
2013-09-25 09:36:00,56.1,49.4,29.88,East,97,1.7,5.0,78,-99.99,,,-99.99,PWS SA v1.10,2013-09-25 13:36:00,
2013-09-25 09:42:00,56.4,49.7,29.88,NNE,29,1.7,5.0,78,-99.99,,,-99.99,PWS SA v1.10,2013-09-25 13:42:00,
2013-09-25 09:48:00,56.7,49.3,29.88,East,87,1.7,5.0,77,-99.99,,,-99.99,PWS SA v1.10,2013-09-25 13:48:00,
2013-09-25 09:54:00,56.9,49.8,29.88,North,0,0.0,3.0,77,-99.99,,,-99.99,PWS SA v1.10,2013-09-25 13:54:00,
2013-09-25 10:00:00,57.2,49.5,29.88,North,0,0.0,3.0,76,-99.99,,,-99.99,PWS SA v1.10,2013-09-25 14:00:00,
2013-09-25 10:06:00,57.7,49.6,29.88,North,0,0.0,5.0,74,-99.99,,,-99.99,PWS SA v1.10,2013-09-25 14:06:00,
2013-09-25 10:12:00,58.0,49.9,29.88,North,0,0.0,5.0,75,-99.99,,,-99.99,PWS SA v1.10,2013-09-25 14:12:00,
2013-09-25 10:18:00,58.3,49.8,29.88,North,0,0.0,3.0,74,-99.99,,,-99.99,PWS SA v1.10,2013-09-25 14:18:00,
2013-09-25 10:24:00,58.6,50.2,29.88,North,0,0.0,3.0,74,-99.99,,,-99.99,PWS SA v1.10,2013-09-25 14:24:00,
2013-09-25 10:30:00,58.7,50.0,29.89,North,0,0.0,3.0,73,-99.99,,,-99.99,PWS SA v1.10,2013-09-25 14:30:00,
2013-09-25 10:36:00,58.8,50.3,29.89,North,0,0.0,1.0,73,-99.99,,,-99.99,PWS SA v1.10,2013-09-25 14:36:00,
2013-09-25 10:42:00,59.2,49.4,29.88,North,0,0.0,0.0,70,-99.99,,,-99.99,PWS SA v1.10,2013-09-25 14:42:00,
2013-09-25 10:48:00,59.4,49.1,29.89,North,0,0.0,1.0,69,-99.99,,,-99.99,PWS SA v1.10,2013-09-25 14:48:00,
2013-09-25 10:54:00,59.6,49.8,29.88,East,90,1.7,1.7,70,-99.99,,,-99.99,PWS SA v1.10,2013-09-25 14:54:00,
2013-09-25 11:00:00,60.1,49.1,29.88,North,0,0.0,1.0,68,-99.99,,,-99.99,PWS SA v1.10,2013-09-25 15:00:00,
2013-09-25 11:06:00,60.4,51.0,29.88,North,0,0.0,1.0,71,-99.99,,,-99.99,PWS SA v1.10,2013-09-25 15:06:00,
2013-09-25 11:12:00,60.7,49.4,29.87,North,0,0.0,0.0,67,-99.99,,,-99.99,PWS SA v1.10,2013-09-25 15:12:00,
2013-09-25 11:18:00,60.9,50.5,29.88,North,0,0.0,3.0,69,-99.99,,,-99.99,PWS SA v1.10,2013-09-25 15:18:00,
2013-09-25 11:24:00,61.0,50.1,29.87,North,0,0.0,3.0,68,-99.99,,,-99.99,PWS SA v1.10,2013-09-25 15:24:00,
2013-09-25 11:30:00,61.3,49.0,29.87,North,0,0.0,3.0,65,-99.99,,,-99.99,PWS SA v1.10,2013-09-25 15:30:00,
2013-09-25 11:36:00,61.7,50.6,29.87,North,0,0.0,3.0,68,-99.99,,,-99.99,PWS SA v1.10,2013-09-25 15:36:00,
2013-09-25 11:42:00,61.9,50.4,29.87,North,0,0.0,5.0,67,-99.99,,,-99.99,PWS SA v1.10,2013-09-25 15:42:00,
2013-09-25 11:48:00,62.3,50.9,29.87,North,0,0.0,5.0,67,-99.99,,,-99.99,PWS SA v1.10,2013-09-25 15:48:00,
2013-09-25 11:54:00,62.3,51.4,29.87,North,0,0.0,0.0,68,-99.99,,,-99.99,PWS SA v1.10,2013-09-25 15:54:00,
2013-09-25 12:00:00,62.7,51.1,29.87,North,0,0.0,5.0,66,-99.99,,,-99.99,PWS SA v1.10,2013-09-25 16:00:00,
2013-09-25 12:06:00,62.9,51.3,29.87,North,0,0.0,5.0,67,-99.99,,,-99.99,PWS SA v1.10,2013-09-25 16:06:00,
2013-09-25 12:12:00,63.0,51.3,29.87,North,0,0.0,5.0,66,-99.99,,,-99.99,PWS SA v1.10,2013-09-25 16:12:00,
2013-09-25 12:18:00,63.5,51.6,29.86,North,0,0.0,3.0,65,-99.99,,,-99.99,PWS SA v1.10,2013-09-25 16:18:00,
2013-09-25 12:24:00,63.2,49.7,29.87,North,0,0.0,3.0,62,-99.99,,,-99.99,PWS SA v1.10,2013-09-25 16:24:00,
2013-09-25 12:30:00,63.5,51.3,29.87,North,0,0.0,1.0,65,-99.99,,,-99.99,PWS SA v1.10,2013-09-25 16:30:00,
2013-09-25 12:36:00,64.5,51.8,29.87,North,0,0.0,1.0,64,-99.99,,,-99.99,PWS SA v1.10,2013-09-25 16:36:00,
2013-09-25 12:42:00,64.3,51.0,29.86,North,0,0.0,1.0,63,-99.99,,,-99.99,PWS SA v1.10,2013-09-25 16:42:00,
2013-09-25 12:48:00,65.0,52.4,29.87,North,0,0.0,1.0,65,-99.99,,,-99.99,PWS SA v1.10,2013-09-25 16:48:00,
2013-09-25 12:54:00,65.1,52.3,29.86,North,0,0.0,3.0,64,-99.99,,,-99.99,PWS SA v1.10,2013-09-25 16:54:00,
2013-09-25 13:00:00,64.9,51.0,29.86,North,0,0.0,3.0,62,-99.99,,,-99.99,PWS SA v1.10,2013-09-25 17:00:00,
2013-09-25 13:06:00,65.3,50.9,29.86,North,355,1.7,3.0,61,-99.99,,,-99.99,PWS SA v1.10,2013-09-25 17:06:00,
2013-09-25 13:12:00,65.2,51.1,29.86,North,0,0.0,3.0,61,-99.99,,,-99.99,PWS SA v1.10,2013-09-25 17:12:00,
2013-09-25 13:18:00,65.1,50.5,29.86,North,0,0.0,3.0,60,-99.99,,,-99.99,PWS SA v1.10,2013-09-25 17:18:00,
2013-09-25 13:24:00,65.3,50.7,29.86,North,0,0.0,1.0,60,-99.99,,,-99.99,PWS SA v1.10,2013-09-25 17:24:00,
2013-09-25 13:30:00,65.3,51.4,29.85,East,85,1.7,3.0,62,-99.99,,,-99.99,PWS SA v1.10,2013-09-25 17:30:00,
2013-09-25 13:36:00,65.4,51.8,29.86,North,0,0.0,3.0,62,-99.99,,,-99.99,PWS SA v1.10,2013-09-25 17:36:00,
2013-09-25 13:42:00,65.8,50.8,29.85,North,0,0.0,3.0,60,-99.99,,,-99.99,PWS SA v1.10,2013-09-25 17:42:00,
2013-09-25 13:48:00,65.6,51.0,29.86,North,0,0.0,0.0,61,-99.99,,,-99.99,PWS SA v1.10,2013-09-25 17:48:00,
2013-09-25 13:54:00,66.1,51.2,29.85,North,0,0.0,0.0,60,-99.99,,,-99.99,PWS SA v1.10,2013-09-25 17:54:00,
2013-09-25 14:00:00,66.7,52.3,29.85,North,0,0.0,3.0,61,-99.99,,,-99.99,PWS SA v1.10,2013-09-25 18:00:00,
2013-09-25 14:06:00,66.8,52.5,29.85,North,0,0.0,3.0,61,-99.99,,,-99.99,PWS SA v1.10,2013-09-25 18:06:00,
2013-09-25 14:12:00,66.3,52.3,29.85,North,0,0.0,3.0,61,-99.99,,,-99.99,PWS SA v1.10,2013-09-25 18:12:00,
2013-09-25 14:18:00,66.7,53.3,29.85,North,0,0.0,0.0,64,-99.99,,,-99.99,PWS SA v1.10,2013-09-25 18:18:00,
2013-09-25 14:24:00,66.7,53.0,29.85,North,0,0.0,0.0,62,-99.99,,,-99.99,PWS SA v1.10,2013-09-25 18:24:00,
2013-09-25 14:30:00,66.4,53.1,29.85,North,0,0.0,3.0,62,-99.99,,,-99.99,PWS SA v1.10,2013-09-25 18:30:00,
2013-09-25 14:36:00,65.2,51.4,29.84,North,0,0.0,5.0,61,-99.99,,,-99.99,PWS SA v1.10,2013-09-25 18:36:00,
2013-09-25 14:42:00,64.5,52.2,29.85,NNE,12,5.1,5.1,65,-99.99,,,-99.99,PWS SA v1.10,2013-09-25 18:42:00,
2013-09-25 14:48:00,63.8,52.8,29.85,North,0,0.0,5.0,69,-99.99,,,-99.99,PWS SA v1.10,2013-09-25 18:48:00,
2013-09-25 14:54:00,64.2,52.4,29.85,North,0,0.0,5.0,67,-99.99,,,-99.99,PWS SA v1.10,2013-09-25 18:54:00,
2013-09-25 15:00:00,64.4,51.9,29.85,SE,144,1.7,1.7,65,-99.99,,,-99.99,PWS SA v1.10,2013-09-25 19:00:00,
2013-09-25 15:06:00,63.8,51.5,29.85,North,0,0.0,1.0,66,-99.99,,,-99.99,PWS SA v1.10,2013-09-25 19:06:00,
2013-09-25 15:12:00,63.7,51.6,29.85,North,0,0.0,1.0,66,-99.99,,,-99.99,PWS SA v1.10,2013-09-25 19:12:00,
2013-09-25 15:18:00,63.5,51.6,29.85,North,0,0.0,0.0,66,-99.99,,,-99.99,PWS SA v1.10,2013-09-25 19:18:00,
2013-09-25 15:24:00,63.1,52.1,29.84,North,0,0.0,1.0,68,-99.99,,,-99.99,PWS SA v1.10,2013-09-25 19:24:00,
2013-09-25 15:30:00,63.1,52.5,29.84,North,0,0.0,1.0,70,-99.99,,,-99.99,PWS SA v1.10,2013-09-25 19:30:00,
2013-09-25 15:36:00,63.3,52.7,29.84,North,0,0.0,1.0,70,-99.99,,,-99.99,PWS SA v1.10,2013-09-25 19:36:00,
2013-09-25 15:42:00,63.2,51.1,29.85,North,0,0.0,1.0,66,-99.99,,,-99.99,PWS SA v1.10,2013-09-25 19:42:00,
2013-09-25 15:48:00,63.9,51.7,29.85,North,0,0.0,1.0,65,-99.99,,,-99.99,PWS SA v1.10,2013-09-25 19:48:00,
2013-09-25 15:54:00,63.6,50.7,29.84,North,0,0.0,1.0,63,-99.99,,,-99.99,PWS SA v1.10,2013-09-25 19:54:00,
2013-09-25 16:00:00,63.1,51.2,29.85,North,0,0.0,0.0,66,-99.99,,,-99.99,PWS SA v1.10,2013-09-25 20:00:00,
2013-09-25 16:06:00,62.8,51.4,29.84,North,0,0.0,3.0,67,-99.99,,,-99.99,PWS SA v1.10,2013-09-25 20:06:00,
2013-09-25 16:12:00,62.7,51.7,29.84,North,0,0.0,3.0,68,-99.99,,,-99.99,PWS SA v1.10,2013-09-25 20:12:00,
2013-09-25 16:18:00,62.5,51.8,29.85,West,260,3.4,3.4,69,-99.99,,,-99.99,PWS SA v1.10,2013-09-25 20:18:00,
2013-09-25 16:24:00,62.2,51.3,29.85,North,0,0.0,3.0,69,-99.99,,,-99.99,PWS SA v1.10,2013-09-25 20:24:00,
2013-09-25 16:30:00,62.1,52.6,29.85,North,0,0.0,3.0,72,-99.99,,,-99.99,PWS SA v1.10,2013-09-25 20:30:00,
2013-09-25 16:36:00,61.7,51.9,29.85,North,0,0.0,0.0,71,-99.99,,,-99.99,PWS SA v1.10,2013-09-25 20:36:00,
2013-09-25 16:42:00,61.5,51.5,29.85,North,0,0.0,0.0,71,-99.99,,,-99.99,PWS SA v1.10,2013-09-25 20:42:00,
2013-09-25 16:48:00,61.3,51.9,29.85,North,0,0.0,0.0,72,-99.99,,,-99.99,PWS SA v1.10,2013-09-25 20:48:00,
2013-09-25 16:54:00,61.0,50.5,29.86,NE,52,3.4,3.4,69,-99.99,,,-99.99,PWS SA v1.10,2013-09-25 20:54:00,
2013-09-25 17:00:00,60.9,50.8,29.85,North,0,0.0,3.0,70,-99.99,,,-99.99,PWS SA v1.10,2013-09-25 21:00:00,
2013-09-25 17:06:00,60.5,50.8,29.86,North,0,0.0,3.0,72,-99.99,,,-99.99,PWS SA v1.10,2013-09-25 21:06:00,
2013-09-25 17:12:00,60.2,50.6,29.86,North,0,0.0,0.0,72,-99.99,,,-99.99,PWS SA v1.10,2013-09-25 21:12:00,
2013-09-25 17:18:00,60.0,49.9,29.86,North,0,0.0,3.0,70,-99.99,,,-99.99,PWS SA v1.10,2013-09-25 21:18:00,
2013-09-25 17:24:00,59.9,49.7,29.86,ENE,62,1.7,3.0,70,-99.99,,,-99.99,PWS SA v1.10,2013-09-25 21:24:00,
2013-09-25 17:30:00,59.7,50.4,29.86,North,0,0.0,1.0,72,-99.99,,,-99.99,PWS SA v1.10,2013-09-25 21:30:00,
2013-09-25 17:36:00,59.6,49.7,29.86,North,0,0.0,1.0,71,-99.99,,,-99.99,PWS SA v1.10,2013-09-25 21:36:00,
2013-09-25 17:42:00,59.5,51.5,29.87,North,0,0.0,1.0,77,-99.99,,,-99.99,PWS SA v1.10,2013-09-25 21:42:00,
2013-09-25 17:48:00,59.5,50.0,29.87,North,0,0.0,5.0,72,-99.99,,,-99.99,PWS SA v1.10,2013-09-25 21:48:00,
2013-09-25 17:54:00,59.2,50.6,29.87,North,0,0.0,5.0,74,-99.99,,,-99.99,PWS SA v1.10,2013-09-25 21:54:00,
2013-09-25 18:00:00,59.0,50.1,29.87,North,0,0.0,5.0,73,-99.99,,,-99.99,PWS SA v1.10,2013-09-25 22:00:00,
2013-09-25 18:06:00,58.7,49.4,29.87,North,0,0.0,1.0,72,-99.99,,,-99.99,PWS SA v1.10,2013-09-25 22:06:00,
2013-09-25 18:12:00,58.4,49.9,29.88,North,0,0.0,1.0,74,-99.99,,,-99.99,PWS SA v1.10,2013-09-25 22:12:00,
2013-09-25 18:18:00,58.2,49.3,29.88,North,0,0.0,1.0,74,-99.99,,,-99.99,PWS SA v1.10,2013-09-25 22:18:00,
2013-09-25 18:24:00,58.0,49.9,29.88,North,0,0.0,0.0,75,-99.99,,,-99.99,PWS SA v1.10,2013-09-25 22:24:00,
2013-09-25 18:30:00,57.9,49.0,29.88,North,0,0.0,3.0,73,-99.99,,,-99.99,PWS SA v1.10,2013-09-25 22:30:00,
2013-09-25 18:36:00,57.7,49.5,29.88,North,0,0.0,3.0,75,-99.99,,,-99.99,PWS SA v1.10,2013-09-25 22:36:00,
2013-09-25 18:42:00,57.5,49.6,29.88,North,0,0.0,1.0,76,-99.99,,,-99.99,PWS SA v1.10,2013-09-25 22:42:00,
2013-09-25 18:48:00,57.3,49.7,29.88,North,0,0.0,0.0,77,-99.99,,,-99.99,PWS SA v1.10,2013-09-25 22:48:00,
2013-09-25 18:54:00,57.2,49.5,29.88,North,0,0.0,0.0,77,-99.99,,,-99.99,PWS SA v1.10,2013-09-25 22:54:00,
2013-09-25 19:00:00,57.2,49.8,29.88,North,0,0.0,0.0,77,-99.99,,,-99.99,PWS SA v1.10,2013-09-25 23:00:00,
2013-09-25 19:06:00,57.2,50.2,29.88,North,0,0.0,0.0,79,-99.99,,,-99.99,PWS SA v1.10,2013-09-25 23:06:00,
2013-09-25 19:12:00,57.2,50.3,29.89,North,0,0.0,0.0,79,-99.99,,,-99.99,PWS SA v1.10,2013-09-25 23:12:00,
2013-09-25 19:18:00,57.2,49.9,29.89,North,0,0.0,0.0,78,-99.99,,,-99.99,PWS SA v1.10,2013-09-25 23:18:00,
2013-09-25 19:24:00,57.0,49.6,29.89,North,0,0.0,0.0,77,-99.99,,,-99.99,PWS SA v1.10,2013-09-25 23:24:00,
2013-09-25 19:30:00,56.9,50.4,29.90,North,0,0.0,0.0,80,-99.99,,,-99.99,PWS SA v1.10,2013-09-25 23:30:00,
2013-09-25 19:36:00,56.6,50.3,29.90,North,0,0.0,0.0,80,-99.99,,,-99.99,PWS SA v1.10,2013-09-25 23:36:00,
2013-09-25 19:42:00,56.4,50.0,29.90,North,0,0.0,0.0,80,-99.99,,,-99.99,PWS SA v1.10,2013-09-25 23:42:00,
2013-09-25 19:48:00,56.4,50.4,29.90,North,0,0.0,0.0,82,-99.99,,,-99.99,PWS SA v1.10,2013-09-25 23:48:00,
2013-09-25 19:54:00,56.3,50.2,29.91,North,0,0.0,0.0,81,-99.99,,,-99.99,PWS SA v1.10,2013-09-25 23:54:00,
2013-09-25 20:00:00,56.3,50.1,29.90,North,0,0.0,0.0,81,-99.99,,,-99.99,PWS SA v1.10,2013-09-26 00:00:00,
2013-09-25 20:06:00,56.4,50.7,29.90,North,0,0.0,0.0,82,-99.99,,,-99.99,PWS SA v1.10,2013-09-26 00:06:00,
2013-09-25 20:12:00,56.4,50.5,29.90,North,0,0.0,0.0,82,-99.99,,,-99.99,PWS SA v1.10,2013-09-26 00:12:00,
2013-09-25 20:18:00,56.4,51.0,29.91,North,0,0.0,0.0,83,-99.99,,,-99.99,PWS SA v1.10,2013-09-26 00:18:00,
2013-09-25 20:24:00,56.4,50.8,29.91,North,0,0.0,0.0,83,-99.99,,,-99.99,PWS SA v1.10,2013-09-26 00:24:00,
2013-09-25 20:30:00,56.5,51.1,29.91,North,0,0.0,0.0,83,-99.99,,,-99.99,PWS SA v1.10,2013-09-26 00:30:00,
2013-09-25 20:36:00,56.4,51.1,29.92,North,0,0.0,0.0,83,-99.99,,,-99.99,PWS SA v1.10,2013-09-26 00:36:00,
2013-09-25 20:42:00,56.4,51.1,29.92,North,0,0.0,0.0,83,-99.99,,,-99.99,PWS SA v1.10,2013-09-26 00:42:00,
2013-09-25 20:48:00,56.4,51.0,29.92,North,0,0.0,0.0,83,-99.99,,,-99.99,PWS SA v1.10,2013-09-26 00:48:00,
2013-09-25 20:54:00,56.2,51.0,29.92,North,0,0.0,0.0,84,-99.99,,,-99.99,PWS SA v1.10,2013-09-26 00:54:00,
2013-09-25 21:00:00,56.3,51.3,29.92,North,0,0.0,0.0,85,-99.99,,,-99.99,PWS SA v1.10,2013-09-26 01:00:00,
2013-09-25 21:06:00,56.4,51.4,29.92,North,0,0.0,0.0,85,-99.99,,,-99.99,PWS SA v1.10,2013-09-26 01:06:00,
2013-09-25 21:12:00,56.2,51.4,29.92,North,0,0.0,0.0,85,-99.99,,,-99.99,PWS SA v1.10,2013-09-26 01:12:00,
2013-09-25 21:18:00,56.4,51.8,29.92,North,0,0.0,0.0,85,-99.99,,,-99.99,PWS SA v1.10,2013-09-26 01:18:00,
2013-09-25 21:24:00,56.3,51.4,29.93,North,0,0.0,0.0,85,-99.99,,,-99.99,PWS SA v1.10,2013-09-26 01:24:00,
2013-09-25 21:30:00,56.0,51.6,29.93,North,0,0.0,0.0,86,-99.99,,,-99.99,PWS SA v1.10,2013-09-26 01:30:00,
2013-09-25 21:36:00,56.1,52.1,29.92,North,0,0.0,0.0,87,-99.99,,,-99.99,PWS SA v1.10,2013-09-26 01:36:00,
2013-09-25 21:42:00,56.1,51.8,29.93,North,0,0.0,0.0,86,-99.99,,,-99.99,PWS SA v1.10,2013-09-26 01:42:00,
2013-09-25 21:48:00,56.1,52.0,29.93,North,0,0.0,0.0,87,-99.99,,,-99.99,PWS SA v1.10,2013-09-26 01:48:00,
2013-09-25 21:54:00,56.0,51.8,29.93,North,0,0.0,0.0,87,-99.99,,,-99.99,PWS SA v1.10,2013-09-26 01:54:00,
2013-09-25 22:00:00,56.0,52.0,29.93,North,0,0.0,0.0,87,-99.99,,,-99.99,PWS SA v1.10,2013-09-26 02:00:00,
2013-09-25 22:06:00,56.0,52.2,29.93,North,0,0.0,0.0,88,-99.99,,,-99.99,PWS SA v1.10,2013-09-26 02:06:00,
2013-09-25 22:12:00,56.0,51.7,29.93,North,0,0.0,0.0,87,-99.99,,,-99.99,PWS SA v1.10,2013-09-26 02:12:00,
2013-09-25 22:18:00,56.1,52.3,29.94,North,0,0.0,0.0,88,-99.99,,,-99.99,PWS SA v1.10,2013-09-26 02:18:00,
2013-09-25 22:24:00,56.0,51.7,29.94,North,0,0.0,0.0,86,-99.99,,,-99.99,PWS SA v1.10,2013-09-26 02:24:00,
2013-09-25 22:30:00,56.1,52.0,29.94,North,0,0.0,0.0,86,-99.99,,,-99.99,PWS SA v1.10,2013-09-26 02:30:00,
2013-09-25 22:36:00,56.1,52.1,29.94,North,0,0.0,0.0,87,-99.99,,,-99.99,PWS SA v1.10,2013-09-26 02:36:00,
2013-09-25 22:42:00,56.0,51.5,29.94,North,0,0.0,0.0,86,-99.99,,,-99.99,PWS SA v1.10,2013-09-26 02:42:00,
2013-09-25 22:48:00,56.0,51.9,29.94,North,0,0.0,0.0,87,-99.99,,,-99.99,PWS SA v1.10,2013-09-26 02:48:00,
2013-09-25 22:54:00,56.0,51.3,29.94,North,0,0.0,0.0,85,-99.99,,,-99.99,PWS SA v1.10,2013-09-26 02:54:00,
2013-09-25 23:00:00,55.9,51.5,29.94,North,0,0.0,0.0,86,-99.99,,,-99.99,PWS SA v1.10,2013-09-26 03:00:00,
2013-09-25 23:06:00,56.0,52.0,29.94,North,0,0.0,0.0,88,-99.99,,,-99.99,PWS SA v1.10,2013-09-26 03:06:00,
2013-09-25 23:12:00,55.7,52.0,29.94,North,0,0.0,0.0,87,-99.99,,,-99.99,PWS SA v1.10,2013-09-26 03:12:00,
2013-09-25 23:18:00,55.6,51.6,29.94,North,0,0.0,0.0,87,-99.99,,,-99.99,PWS SA v1.10,2013-09-26 03:18:00,
2013-09-25 23:24:00,55.5,51.8,29.94,North,0,0.0,0.0,88,-99.99,,,-99.99,PWS SA v1.10,2013-09-26 03:24:00,
2013-09-25 23:30:00,55.6,52.2,29.94,North,0,0.0,0.0,89,-99.99,,,-99.99,PWS SA v1.10,2013-09-26 03:30:00,
2013-09-25 23:36:00,55.7,52.0,29.94,North,0,0.0,0.0,88,-99.99,,,-99.99,PWS SA v1.10,2013-09-26 03:36:00,
2013-09-25 23:42:00,55.6,52.4,29.94,North,0,0.0,0.0,90,-99.99,,,-99.99,PWS SA v1.10,2013-09-26 03:42:00,
2013-09-25 23:48:00,55.5,51.7,29.94,North,0,0.0,0.0,88,-99.99,,,-99.99,PWS SA v1.10,2013-09-26 03:48:00,
2013-09-25 23:54:00,55.5,52.4,29.94,North,0,0.0,0.0,90,-99.99,,,-99.99,PWS SA v1.10,2013-09-26 03:54:00,